EW7893 Weather Reports


time (UTC)temp
C
wind
direction
speed
KPH
gust
KPH
rain 1hr
cm
rain 24hr
cm
rain mn
cm
humidity
%
barometer
mb
20260510223045 18 153 0.0 1.6 0.00 0.15 0.03 76 1013.8
20260510221551 18 116 0.0 0.0 0.00 0.15 0.03 75 1013.8
20260510220303 18 116 0.0 3.2 0.00 0.15 0.03 75 1013.7
20260510220109 18 136 0.0 4.8 0.00 0.28 0.03 75 1013.6
20260510214513 17 262 0.0 4.8 0.00 0.28 0.03 75 1013.6
20260510213022 17 212 0.0 1.6 0.00 0.28 0.03 76 1013.4
20260510211531 17 102 0.0 4.8 0.00 0.28 0.03 75 1013.2
20260510210038 17 105 4.8 14.5 0.00 0.28 0.03 74 1013.0
20260510204543 17 121 6.4 14.5 0.00 0.28 0.03 72 1012.9
20260510203054 20 94 6.4 14.5 0.00 0.28 0.03 65 1012.6
20260510201510 21 162 3.2 8.0 0.00 0.28 0.03 63 1012.4
20260510200333 21 182 1.6 8.0 0.00 0.28 0.03 63 1012.5
20260510194528 23 113 4.8 14.5 0.00 0.30 0.03 58 1012.7
20260510193039 22 259 1.6 8.0 0.00 0.30 0.03 60 1012.8
20260510191608 22 122 4.8 9.7 0.00 0.30 0.03 60 1012.9
20260510190103 22 96 3.2 9.7 0.00 0.46 0.03 63 1012.8
20260510184509 23 120 3.2 11.3 0.00 0.46 0.03 58 1012.8
20260510183028 22 165 3.2 11.3 0.00 0.46 0.03 61 1013.1
20260510181547 23 188 6.4 12.9 0.00 0.46 0.03 59 1013.0
20260510180304 23 89 3.2 9.7 0.00 0.46 0.03 59 1013.1
20260510180059 22 211 3.2 9.7 0.00 0.46 0.03 60 1013.1
20260510174503 22 184 1.6 9.7 0.00 0.46 0.03 61 1013.1
20260510173009 21 213 1.6 9.7 0.00 0.46 0.03 63 1013.1
20260510171506 21 165 0.0 9.7 0.00 0.46 0.03 65 1013.1
20260510170004 20 230 3.2 11.3 0.00 0.46 0.03 67 1013.3
20260510164516 18 86 1.6 8.0 0.00 0.46 0.03 69 1013.4
20260510163030 18 101 3.2 11.3 0.00 0.46 0.03 71 1013.5
20260510161557 18 281 3.2 9.7 0.00 0.46 0.03 72 1013.7
20260510160313 17 200 3.2 9.7 0.00 0.46 0.03 75 1013.8
20260510160059 17 160 1.6 6.4 0.00 0.46 0.03 76 1013.8
20260510154514 16 124 0.0 4.8 0.00 0.46 0.03 78 1013.9
20260510153028 15 178 1.6 6.4 0.00 0.46 0.03 81 1014.2
20260510151521 15 272 0.0 8.0 0.00 0.46 0.03 82 1013.9
20260510150041 14 127 0.0 6.4 0.00 0.46 0.03 84 1014.0
20260510144558 13 197 1.6 6.4 0.00 0.46 0.03 85 1014.0
20260510143019 13 101 1.6 6.4 0.00 0.46 0.03 86 1013.9
20260510141534 13 121 1.6 8.0 0.00 0.46 0.03 87 1013.9
20260510140311 13 235 1.6 4.8 0.00 0.46 0.03 88 1013.9
20260510140046 13 219 0.0 4.8 0.00 0.46 0.03 88 1013.9
20260510134613 12 186 1.6 6.4 0.00 0.46 0.03 89 1013.7
20260510133023 12 210 1.6 4.8 0.00 0.46 0.03 90 1013.7
20260510131529 12 110 3.2 8.0 0.00 0.46 0.03 91 1013.7
20260510130035 12 110 0.0 4.8 0.00 0.46 0.03 91 1013.3
20260510124549 11 123 0.0 4.8 0.00 0.46 0.03 91 1013.2
20260510123002 11 102 0.0 4.8 0.00 0.46 0.03 91 1013.2
20260510121502 12 125 1.6 4.8 0.00 0.46 0.03 91 1013.1
20260510120316 12 212 0.0 3.2 0.00 0.46 0.03 92 1012.9
20260510120002 12 156 0.0 3.2 0.00 0.46 0.03 92 1012.8
20260510114511 11 89 0.0 4.8 0.00 0.46 0.03 92 1012.7
20260510113031 11 138 0.0 1.6 0.00 0.46 0.03 93 1012.7
20260510111553 11 168 1.6 4.8 0.00 0.46 0.03 93 1012.5
20260510110100 11 124 0.0 1.6 0.00 0.46 0.03 93 1012.1
20260510104517 11 57 0.0 1.6 0.00 0.46 0.03 93 1011.9
20260510103019 11 1 0.0 1.6 0.00 0.46 0.03 93 1012.1
20260510101541 11 352 1.6 4.8 0.00 0.46 0.03 93 1011.9
20260510100323 11 337 1.6 4.8 0.00 0.46 0.03 93 1012.1
20260510100040 11 56 0.0 4.8 0.00 0.46 0.03 93 1012.0
20260510094557 11 70 1.6 6.4 0.00 0.46 0.03 93 1012.0
20260510093015 11 14 1.6 6.4 0.00 0.46 0.03 93 1012.3
20260510091524 11 341 0.0 4.8 0.00 0.46 0.03 93 1012.5
20260510090049 11 6 0.0 4.8 0.00 0.46 0.03 93 1012.5
20260510084603 11 13 0.0 6.4 0.00 0.46 0.03 93 1012.4
20260510083007 11 354 0.0 1.6 0.00 0.46 0.03 93 1011.9
20260510081538 11 357 0.0 1.6 0.00 0.46 0.03 93 1011.7
20260510080324 11 49 0.0 1.6 0.00 0.46 0.03 93 1011.7
20260510080028 11 49 0.0 1.6 0.00 0.46 0.03 93 1011.7
20260510074542 10 49 0.0 1.6 0.00 0.46 0.03 93 1011.7
20260510073104 10 358 0.0 3.2 0.00 0.46 0.03 93 1011.4
20260510071508 10 23 1.6 6.4 0.00 0.46 0.03 93 1011.7
20260510070021 10 7 0.0 1.6 0.00 0.46 0.03 93 1011.5
20260510064545 9 135 0.0 1.6 0.00 0.46 0.03 93 1011.4
20260510063057 8 136 0.0 0.0 0.00 0.46 0.03 93 1011.2
20260510061517 8 137 0.0 0.0 0.00 0.46 0.03 92 1011.1
20260510060303 9 136 0.0 0.0 0.00 0.46 0.03 92 1011.2
20260510060021 8 136 0.0 0.0 0.00 0.46 0.03 92 1011.3
20260510054522 9 136 0.0 0.0 0.00 0.46 0.03 92 1011.3
20260510053042 9 136 0.0 0.0 0.00 0.46 0.03 92 1011.3
20260510051550 9 136 0.0 0.0 0.03 0.46 0.03 92 1011.3
20260510050003 9 136 0.0 0.0 0.03 0.46 0.03 92 1011.5
20260510044540 9 136 0.0 0.0 0.03 0.46 0.03 92 1011.6
20260510043036 9 136 0.0 0.0 0.03 0.46 0.03 91 1011.7
20260510041541 10 136 0.0 0.0 0.00 0.43 0.00 92 1011.6
20260510040306 10 136 0.0 0.0 0.00 0.43 0.00 91 1011.4
20260510040100 10 136 0.0 0.0 0.00 0.43 0.43 91 1011.4
20260510034517 10 136 0.0 0.0 0.00 0.43 0.43 91 1011.2
20260510033048 10 136 0.0 0.0 0.00 0.43 0.43 91 1011.2
20260510031541 10 136 0.0 0.0 0.00 0.43 0.43 91 1011.2
20260510030112 10 136 0.0 0.0 0.00 0.43 0.43 91 1011.1
20260510024506 10 136 0.0 0.0 0.00 0.43 0.43 90 1011.2
20260510023011 11 136 0.0 0.0 0.00 0.43 0.43 91 1011.2
20260510021525 11 136 0.0 0.0 0.00 0.43 0.43 90 1011.2
20260510020311 11 136 0.0 0.0 0.00 0.43 0.43 90 1011.1
20260510020035 11 136 0.0 0.0 0.00 0.43 0.43 90 1011.1
20260510014545 11 136 0.0 0.0 0.00 0.43 0.43 90 1011.1
20260510013058 11 136 0.0 0.0 0.00 0.43 0.43 89 1011.0
20260510011518 11 136 0.0 0.0 0.00 0.43 0.43 89 1011.1
20260510010027 11 136 0.0 0.0 0.00 0.43 0.43 89 1010.7
20260510004545 12 136 0.0 0.0 0.00 0.43 0.43 88 1010.6
20260510003102 12 136 0.0 0.0 0.00 0.43 0.43 88 1010.7
20260510001506 12 136 0.0 0.0 0.00 0.43 0.43 87 1010.6
20260510000304 12 136 0.0 0.0 0.00 0.43 0.43 86 1010.5
20260510000018 12 136 0.0 0.0 0.00 0.43 0.43 86 1010.5
20260509234550 12 136 0.0 1.6 0.00 0.43 0.43 85 1010.5
20260509233035 13 136 0.0 0.0 0.00 0.43 0.43 84 1010.2
20260509231549 13 136 0.0 3.2 0.05 0.43 0.43 84 1010.3
20260509230049 13 162 0.0 1.6 0.13 0.43 0.43 85 1010.3
20260509224555 13 17 0.0 3.2 0.15 0.43 0.43 84 1010.6